Latham, NY

12:30 PM EDT on August 31, 2016 (GMT -0400)
Albany International

Weather History for KALB - March, 2012

Change the Weather History Date:

Sunday, March 4, 2012

  Actual Average Record
Temperature  
Mean Temperature 32 °F 30 °F  
Max Temperature 39 °F 40 °F 59 °F (1919)
Min Temperature 25 °F 22 °F -20 °F (1950)
Degree Days  
Heating Degree Days 33 34  
Month to date heating degree days 119 139  
Since 1 July heating degree days 4198 5083  
Cooling Degree Days 0 0  
Month to date cooling degree days 0 0  
Year to date cooling degree days 0 0  
Moisture  
Dew Point 19 °F    
Average Humidity 63    
Maximum Humidity 81    
Minimum Humidity 44    
Precipitation  
Precipitation T in 0.10 in 1.33 in (1985)
Month to date precipitation 0.92 0.38  
Year to date precipitation 4.18 5.17  
Snow  
Snow T in 0.50 in 8.30 in (1971)
Month to date snowfall 4.8 1.8  
Since 1 July snowfall 23.0 48.3  
Snow Depth 1.00 in    
Sea Level Pressure  
Sea Level Pressure 29.65 in    
Wind  
Wind Speed 8 mph (West)    
Max Wind Speed 24 mph    
Max Gust Speed 28 mph    
Visibility 10 miles    
Events Snow    
T = Trace of Precipitation, MM = Missing Value Source: NWS Daily Summary

Daily Weather History Graph

Daily Weather History Graph

Search for Another Location

Airport or City:

Trip Planner

Search our weather history database for the weather conditions in past years. The results will help you decide how hot, cold, wet, or windy it might be!

Date:

Astronomy

Mar. 04, 2012 Rise Set
Actual Time 6:25 AM EST 5:49 PM EST
Civil Twilight 5:56 AM EST 6:17 PM EST
Nautical Twilight 5:24 AM EST 6:50 PM EST
Astronomical Twilight 4:51 AM EST 7:22 PM EST
Moon 1:54 PM EST (3/4) 3:48 AM EST (3/4)
Length of Visible Light 12h 20m
Length of Day
11h 23m
Waxing Gibbous, 83% of the Moon is Illuminated
Mar 4
Waxing Gibbous
Mar 8
Full
Mar 14
Last Quarter
Mar 22
New
Mar 30
First Quarter

Hourly Weather History & Observations

Time (EST) Temp. Windchill Dew Point Humidity Pressure Visibility Wind Dir Wind Speed Gust Speed Precip Events Conditions
12:51 AM 35.1 °F 27.9 °F 19.9 °F 54% 29.66 in 10.0 mi West 9.2 mph - N/A   Partly Cloudy
1:51 AM 35.1 °F 30.1 °F 19.0 °F 52% 29.67 in 10.0 mi South 5.8 mph - N/A   Partly Cloudy
2:51 AM 33.1 °F 26.9 °F 19.0 °F 56% 29.64 in 10.0 mi WSW 6.9 mph - N/A   Partly Cloudy
3:51 AM 34.0 °F 28.8 °F 18.0 °F 52% 29.65 in 10.0 mi South 5.8 mph - N/A   Clear
4:51 AM 30.0 °F 25.2 °F 17.1 °F 59% 29.66 in 10.0 mi SW 4.6 mph - N/A   Clear
5:51 AM 26.1 °F - 18.0 °F 71% 29.66 in 10.0 mi Calm Calm - N/A   Partly Cloudy
6:51 AM 25.0 °F - 19.0 °F 78% 29.67 in 10.0 mi Calm Calm - N/A   Mostly Cloudy
7:51 AM 30.0 °F - 21.0 °F 69% 29.67 in 10.0 mi Calm Calm - N/A   Mostly Cloudy
8:51 AM 34.0 °F 28.8 °F 21.9 °F 61% 29.66 in 10.0 mi SW 5.8 mph - N/A   Mostly Cloudy
9:51 AM 37.9 °F 32.1 °F 19.0 °F 47% 29.63 in 10.0 mi WNW 8.1 mph - N/A   Mostly Cloudy
10:51 AM 37.0 °F 29.8 °F 18.0 °F 46% 29.63 in 10.0 mi West 10.4 mph - N/A   Mostly Cloudy
11:51 AM 37.0 °F 31.0 °F 19.0 °F 48% 29.62 in 10.0 mi West 8.1 mph - N/A   Mostly Cloudy
12:51 PM 37.9 °F 34.4 °F 19.0 °F 47% 29.60 in 10.0 mi WSW 4.6 mph - N/A   Overcast
1:51 PM 37.9 °F 30.9 °F 19.0 °F 47% 29.58 in 10.0 mi WSW 10.4 mph - N/A   Overcast
2:51 PM 35.1 °F 23.8 °F 25.0 °F 67% 29.59 in 9.0 mi West 20.7 mph 25.3 mph 0.00 in Snow Light Snow
3:51 PM 35.1 °F 27.9 °F 25.0 °F 67% 29.60 in 10.0 mi West 9.2 mph - 0.00 in   Mostly Cloudy
4:51 PM 36.0 °F 28.0 °F 19.9 °F 52% 29.62 in 10.0 mi WNW 11.5 mph 21.9 mph N/A   Mostly Cloudy
5:51 PM 34.0 °F 26.0 °F 19.9 °F 56% 29.64 in 10.0 mi NW 10.4 mph - N/A   Mostly Cloudy
6:51 PM 32.0 °F 21.2 °F 21.0 °F 64% 29.67 in 10.0 mi WNW 16.1 mph 24.2 mph N/A   Mostly Cloudy
7:51 PM 30.0 °F 19.1 °F 19.0 °F 64% 29.68 in 10.0 mi WNW 15.0 mph - N/A   Scattered Clouds
8:51 PM 28.0 °F 18.1 °F 18.0 °F 66% 29.71 in 10.0 mi WNW 11.5 mph - N/A   Partly Cloudy
9:51 PM 27.0 °F 18.7 °F 17.1 °F 66% 29.72 in 10.0 mi NW 8.1 mph - N/A   Scattered Clouds
10:51 PM 26.1 °F 16.8 °F 17.1 °F 69% 29.72 in 10.0 mi WNW 9.2 mph - N/A   Mostly Cloudy
11:51 PM 25.0 °F 15.5 °F 16.0 °F 69% 29.74 in 10.0 mi WNW 9.2 mph - 0.00 in   Mostly Cloudy